STARLINK-11521, 62597

Orbit data source: Space-Track

STARLINK-11521, 62597 is a payload satellite owned by SpaceX/Seattle (US) in LEO that was launched on Mon, 13 Jan 2025 UTC via an FALCON 9 launch vehicle from the Air Force Eastern Test Range (AFETR). Payloads include a variety of satellites, spacecraft, and rockets equipped with specific instruments for various scientific and technological missions. These include communications satellites like Starlink; space stations such as the ISS; scientific satellites like the Hubble; Earth observation satellites from companies like Planet Labs, Umbra, and HawkEye 360; GPS; miniature CubeSats for education and research; and military/defense satellites.

Loading next visibility...
STARLINK-11521 details
Identifier
62597, 2025-008L
Orbit
LEO
Last TLE update10 hours ago
Origin
Flag of USSpaceX/Seattle (US)
ManufacturerSpaceX/Seattle
MissionOperational spacecraft
Bus & MotorSTARLINK V2M, Unknown motor
Mass730 kg wet, ~700 kg dry
Launch date (UTC)
2025-01-13 (1 month ago)
Launch vehicle
FALCON 9
Launch site
Air Force Eastern Test Range (AFETR)
Object type
Payload
Rocket body
Debris
Shape & HBRUnknown
Radar Cross SectionLarge (>1 m²)

Expand to show TLE details & history

TLE from 10 hours ago
0 STARLINK-11521
1 62597U 25008L   25047.10570659  .00002571  00000-0  17632-4 0  9993
2 62597  42.9965 297.3598 0001535 264.8600  95.2095 15.77858988  6472
Epoch: 2025-02-16T02:32Z
Definitive object data (Epoch: 2025-02-16T02:32:13.049Z)
Latitude-0.00001°
Longitude112.96188°
Altitude336.372 km
Speed7.709 km/s
True Right ascension19h 49m 26s
True Declination0° 00' 00"
Sunlit
Object was in daylight at TLE epoch
Visualization TLE readout
Latitude-43.05264°
Longitude25.26097°
Altitude348.742 km
Speed7.701 km/s
Apparent Right ascension08h 49m 26s
Apparent Declination-76° 39' 32"
Sunlit
Object is in daylight
Visualization observer readout
Local Sidereal Time15:34:58
Azimuth197.509° SSW
Elevation-41.245°
Doppler factor1
Orbital elements
Apogee altitude339.527 km
Perigee altitude337.465 km
Semi-major axis6,716.633 km
Eccentricity0.0001535
Inclination42.9965°
RAAN297.3598°
Arg. of periapsis264.86°
True anomaly95.22702°
Mean anomaly95.2095°
Eccentric anomaly95.21826°
Mean motion3.9429 °/min
BSTAR0.000017632
Orbital period91.3 mins
Loading maneuver chart data...
Loading historical data...
Loading historical data...
Loading historical data...
Loading historical data...
Loading historical data...
Loading historical data...
Loading historical data...

STARLINK-11521 Visibility forecast

Observer location: undefined°, undefined

Span
Click to sort rows by Start time (UTC) header in descending order
Start Az.
Max El. time (UTC)
Max El. Az.
Max El.
End time (UTC)
End Az.
4 mins2025-02-16 21:02:22.809Z256.064° W2025-02-16 21:04:22.809Z53.029° ENE42.553°2025-02-16 21:06:22.809Z70.316° E
4 mins2025-02-16 22:38:22.809Z298.25° NW2025-02-16 22:40:22.809Z29.411° NE31.21°2025-02-16 22:42:22.809Z71.72° E
4 mins2025-02-17 00:14:22.809Z292.482° WNW2025-02-17 00:15:22.809Z307.327° NW41.635°2025-02-17 00:18:22.809Z104.586° ESE
|